Regional Weather Roundup
Issued by NWS

Home | Current Version | Previous Version | Graphics & Text | Print | Product List | Glossary On
Versions: 1 2 3 4 5 6 7 8 9 10 11 12 13 14 15 16 17 18 19 20 21 22 23 24 25 26 27 28 29 30 31 32 33 34 35 36 37 38 39 40 41 42 43 44 45 46 47 48 49 50
000
ASUS43 KLOT 230409
RWRIL

ILLINOIS REGIONAL WEATHER ROUNDUP
NATIONAL WEATHER SERVICE CHICAGO/ROMEOVILLE IL
1100 PM CDT TUE AUG 22 2017

NOTE: "FAIR" INDICATES FEW OR NO CLOUDS BELOW 12,000 FEET WITH NO
SIGNIFICANT WEATHER AND/OR OBSTRUCTIONS TO VISIBILITY.

* THESE STATIONS ARE NOT UNDER NWS QUALITY CONTROL. THEY ALSO MAY NOT
  REPORT WEATHER SUCH AS PRECIPITATION OR FOG.

ILZ001-002-007-009-015-016-024-230500-
NORTHWEST ILLINOIS

CITY           SKY/WX    TMP DP  RH WIND       PRES   REMARKS
MOLINE         CLEAR     64  53  67 NW8       30.06R
STERLING*      CLEAR     59  54  83 W5        30.05R
SAVANNA*       CLEAR     62  54  76 NW5       30.05S
$$

ILZ003-004-008-010-011-017-018-230500-
NORTH CENTRAL ILLINOIS

CITY           SKY/WX    TMP DP  RH WIND       PRES   REMARKS
ROCKFORD       PTCLDY    60  51  72 W6        30.04R
FREEPORT*      CLEAR     58  51  79 W5        30.05S
ROCHELLE*      CLEAR     55  51  86 W6        30.04S
DE KALB*       CLEAR     58  53  83 W7        30.04R
PERU*          CLEAR     58  53  83 NW8       30.05R
$$

ILZ005-006-012>014-019>023-230500-
NORTHEAST ILLINOIS

CITY           SKY/WX    TMP DP  RH WIND       PRES   REMARKS
CHICAGO-OHARE  PTCLDY    67  50  54 NW9       30.00R
CHICAGO-MIDWAY CLEAR     68  51  54 NW7       30.00R
AURORA         CLEAR     56  54  93 W6        30.03R
LANSING*       CLEAR     65  50  58 NW5       30.00R
JOLIET*        CLEAR     66  55  67 CALM      30.02R
WAUKEGAN       CLEAR     61  52  72 CALM      29.98S
DUPAGE AIRPORT CLEAR     60  53  77 W6        30.01R
KANKAKEE*      CLEAR     61  55  82 W5        30.02R
WHEELING       CLEAR     66  52  60 W6        30.01R
MORRIS*        CLEAR     58  55  88 NW5       30.01S
ROMEOVILLE*    CLEAR     61  52  72 NW6       30.02R
NORTHERLY ISL    N/A     71  49  45 NW7         N/A
$$

LMZ740>746-230500-
SOUTHERN LAKE MICHIGAN

STATION/POSITION SKY/WX   TEMP    WIND        PRES    VSBY  WAVE
                          AIR SEA DIR/SP/G                  HT/PER
                          (F)     (DEG/KT/KT) (MB)    (MI)  (FT/S)
SOUTHERN BUOY              72 71  330/ 16/ 19 1013.7          4/ 6
WILMETTE HARBOR            70 73  290/ 12/ 16   N/A           3/ 5
HARRISON CRIB              71     310/ 14/ 16   N/A
CALUMET HARBOR             70     300/  4/ 10 1015.1R
BURNS HARBOR               73     330/ 17/ 21 1015.6R
MICHIGAN CITY              72     310/ 18/ 20   N/A
MICHIGAN CITY 6N           72 74  330/ 16/ 19   N/A           5/ 5
ST. JOSEPH                 72 73  350/ 14/ 19 1014.8          5/ 6
$$

ILZ025>027-034>036-040-047-049-050-058-095>099-230500-
WEST-CENTRAL ILLINOIS

CITY           SKY/WX    TMP DP  RH WIND       PRES   REMARKS
QUINCY         CLEAR     60  55  83 N6        30.10R
GALESBURG*     CLEAR     58  53  84 NW3       30.08S
MACOMB*        CLEAR     58  56  93 W5        30.10S
JACKSONVILLE*  CLEAR     61  56  84 CALM      30.08R
PITTSFIELD*    CLEAR     64  56  77 NW8       30.10R
$$

ILZ028>032-037-038-041>044-048-051>054-059>061-230500-
CENTRAL ILLINOIS

CITY           SKY/WX    TMP DP  RH WIND       PRES   REMARKS
PONTIAC        CLEAR     60  59  98 NW5       30.04R
BLOOMINGTON    CLEAR     65  54  67 NW12      30.06R
DECATUR        PTCLDY    68  55  63 NW8       30.05R
PEORIA         CLEAR     63  56  78 NW5       30.06R
LACON*         PTCLDY    60  56  86 N3        30.04R
LINCOLN*       CLEAR     64  59  84 NW3       30.05S
SPRINGFIELD    CLEAR     64  58  80 NW6       30.06R
TAYLORVILLE    MOCLDY    64  58  83 NW5       30.06S
$$

ILZ033-039-045-046-055>057-062-063-230500-
EAST-CENTRAL ILLINOIS

CITY           SKY/WX    TMP DP  RH WIND       PRES   REMARKS
CHAMPAIGN      CLEAR     61  57  87 NW5       30.03R
RANTOUL*       CLEAR     63  60  88 NW5       30.02S
MATTOON        CLOUDY    65  62  90 W6        30.03R
PARIS*         CLEAR     61  58  92 NW3       30.03R
$$

ILZ079-100>102-230500-
SOUTHWEST ILLINOIS

CITY           SKY/WX    TMP DP  RH WIND       PRES   REMARKS
ALTON          CLEAR     66  60  82 CALM      30.06S
BELLEVILLE     CLEAR     68  59  74 N5        30.06R
CAHOKIA*       CLEAR     72  58  61 N8        30.05R
SPARTA*        MOCLDY    70  63  77 N5        30.05S
$$

ILZ064>066-069>071-074>076-080>082-084>086-088>090-092>094-230500-
SOUTH-CENTRAL ILLINOIS

CITY           SKY/WX    TMP DP  RH WIND       PRES   REMARKS
CARBONDALE     CLEAR     68  67  96 CALM      30.03R
CAIRO*         CLEAR     68  67  99 CALM      30.02S
EFFINGHAM*     CLEAR     65  62  91 W3        30.06R
MARION         MOCLDY    73  70  88 N5        30.04R
MT. VERNON       N/A     67  64  90 CALM      30.04R
CENTRALIA*     CLEAR     67  63  86 N6        30.03S
SALEM*         CLEAR     65  61  86 CALM      30.05R
METROPOLIS*    CLEAR     70  69  94 CALM      30.03R
$$

ILZ067-068-072-073-078-083-087-091-230500-
SOUTHEAST ILLINOIS

CITY           SKY/WX    TMP DP  RH WIND       PRES   REMARKS
LAWRENCEVILLE  CLEAR     67  63  87 NW7       30.01R
FLORA*         CLEAR     67  62  83 NW5       30.04R
FAIRFIELD*     CLEAR     69  63  81 CALM      30.02S
HARRISBURG*    PTCLDY    71  67  87 N7        30.03R
ROBINSON*      CLEAR     65  61  88 N6        30.03R
CARMI*         PTCLDY    68  67  96 NW3       30.02R
$$

ABBREVIATIONS USED IN REMARKS
   TC - TEMPERATURE IN CELSIUS
  WCI - WIND CHILL INDEX
   HX - HEAT INDEX
  VSB - VISIBILITY
$$





USA.gov is the U.S. government's official web portal to all federal, state and local government web resources and services.